Preview of NWS' New Version of Forecast
This preview is not operational and should not be used for support decisions.

Regional Weather Roundup (RWR)

Issued by National Weather Service (NWS)

                            
000
ASUS45 KABQ 221610
RWRNM 
NEW MEXICO REGIONAL WEATHER ROUNDUP
NATIONAL WEATHER SERVICE ALBUQUERQUE NM
1000 AM MDT MON JUL 22 2019

NOTE: "FAIR" MEANS FEW OR NO CLOUDS BELOW 12,000 FEET AGL WITH NO
       SIGNIFICANT WEATHER OR OBSTRUCTIONS TO VISION.

      THIS PRODUCT IS RELEASED AS TWO VERSIONS.  ONE VERSION NEAR
      THE TOP OF THE HOUR CONTAINING PRELIMINARY DATA FROM ALBUQUERQUE
      AND OTHER STATIONS.  A FINAL VERSION WITH ADDITIONAL DATA IS 
      ISSUED ABOUT 10 MINUTES AFTER THE HOUR.
 
NMZ501-503-504-510>518-221700-
NORTHWEST PLATEAU/NORTHCENTRAL MOUNTAINS
  
CITY           SKY/WX    TMP DP  RH WIND       PRES   REMARKS
FARMINGTON     FAIR      82  45  27 SE12      30.29S                  
LOS ALAMOS       N/A     74  44  33 E8        30.46S                  
SANTA FE       FAIR      78  46  32 N3        30.39F                  
ANGEL FIRE       N/A     63  49  61 NE5       30.58F                  

$$
NMZ402-403-502-505>509-221700-
WESTCENTRAL MOUNTAINS/SOUTHWEST MOUNTAINS
  
CITY           SKY/WX    TMP DP  RH WIND       PRES   REMARKS
GALLUP         FAIR      82  46  28 SE16      30.35R                  
GRANTS         FAIR      77  47  34 SE20G29   30.42R                  
SILVER CITY    FAIR      81  48  32 E6        30.30R                  

$$
NMZ407-409-411-412-221700-
SOUTHERN DESERTS
  
CITY           SKY/WX    TMP DP  RH WIND       PRES   REMARKS
DEMING         FAIR      83  53  35 E14       30.23R                  
LAS CRUCES     FAIR      82  51  34 SE10      30.25R                  
ALAMOGORDO     FAIR      82  54  36 S3        30.24R                  
T OR C         FAIR      80  55  42 NE20      30.27R                  

$$
NMZ519>523-221700-
CENTRAL VALLEYS/CENTRAL HIGHLANDS
  
CITY           SKY/WX    TMP DP  RH WIND       PRES   REMARKS
ALBUQUERQUE    PTSUNNY   80  52  37 E17G25    30.33S                  
DOUBLE EAGLE   PTSUNNY   79  52  38 SE13      30.37S                  
MORIARTY ARPT  FAIR      77  53  43 SE8G17    30.44R                  
CLINES CORNERS FAIR      66  53  63 E17G25    30.48R                  
BELEN          FAIR      80  48  32 NW10      30.33S                  
SOCORRO        FAIR      80  51  36 E7G16     30.33R                  

$$
NMZ524>526-539-540-221700-
SOUTHCENTRAL MOUNTAINS
  
CITY           SKY/WX    TMP DP  RH WIND       PRES   REMARKS
RUIDOSO          N/A     64  57  77 SE14      30.49S                  

$$
NMZ527>531-221700-
NORTHEAST HIGHLANDS/NORTHEAST PLAINS
  
CITY           SKY/WX    TMP DP  RH WIND       PRES   REMARKS
LAS VEGAS      FAIR      68  53  58 NE8G21    30.50R                  
RATON          FAIR      70  52  52 VRB3      30.46S                  
CLAYTON        CLOUDY    64  60  87 N16       30.37F                  

$$
NMZ532>537-221700-
EASTCENTRAL PLAINS
  
CITY           SKY/WX    TMP DP  RH WIND       PRES   REMARKS
SANTA ROSA     FAIR      74  63  69 N12       30.36S                  
TUCUMCARI      FAIR      70  63  78 NE13      30.29F                  
CANNON AFB     CLOUDY    70  61  73 E13       30.33R                  
CLOVIS AIRPORT FAIR      74  60  61 NE18G24   30.33R                  

$$
NMZ028-029-538-221700-
SOUTHEAST PLAINS
  
CITY           SKY/WX    TMP DP  RH WIND       PRES   REMARKS
ROSWELL        LGT RAIN  77  64  64 N16       30.27R                  
ARTESIA        PTSUNNY   77  70  78 N16       30.27R                  
CARLSBAD       PTSUNNY   81  64  56 N16       30.21R                  
HOBBS          PTSUNNY   81  61  50 N22G29    30.22R                  


$$